Flag for Canada Weather past 2 weeks in Kugluktuk, Nunavut, Canada

Now
36 °F

Overcast.


Feels Like: 31 °F
Forecast: 31 / 46 °F
Wind: 6 mph from East

Location: Coppermine

Current Time: Jun 3, 2015 at 10:12:48 AM

Latest Report: Jun 3, 2015 at 9:00 AM


Visibility: 15 mi

Pressure: 30.10 "Hg

Humidity: 81%

Dew point: 30 °F

Location of KugluktukLocation

Historic Weather in Kugluktuk — Graph

°F

Kugluktuk temperature yesterday

Maximum temperature yesterday: 39 °F (at 1:00 PM)
Minimum temperature yesterday: 30 °F (at 2:00 AM)
Average temperature yesterday: 35 °F

Past Weeks' High & Low Weather Summary

 TemperatureHumidityPressure
High63 °F (May 22, 6:00 PM)100% (May 20, 12:00 AM)30.55 "Hg (May 20, 12:00 AM)
Low27 °F (May 20, 2:00 AM)31% (May 29, 10:00 AM)29.93 "Hg (May 23, 12:00 AM)
Average37 °F76%30.17 "Hg
* Reported May 19 8:00 AM — Jun 3 8:00 AM, Kugluktuk, Weather by CustomWeather, © 2015

Note: Actual official high and low records may vary slightly from our data, if they occured in-between our weather recording intervals... More about our weather records

Advertising

Kugluktuk weather history for previous 24 hours

 ConditionsComfort  
Time TempWeatherWind HumidityBarometerVisibility
8:00 AM
Wed, Jun 3
34 °FSnow flurries. Broken clouds.3 mph87%30.10 "Hg15 mi
7:51 AM34 °FSnow flurries. Broken clouds.3 mph87%30.10 "Hg15 mi
7:00 AM34 °FScattered showers. Partly sunny.5 mph87%30.10 "Hg15 mi
6:00 AM34 °FScattered showers. Partly sunny.3 mph87%30.09 "Hg15 mi
5:00 AM34 °FScattered showers. Partly sunny.No wind87%30.09 "Hg15 mi
4:00 AM32 °FScattered showers. Partly sunny.3 mph93%30.08 "Hg15 mi
3:00 AM34 °FScattered showers. Partly sunny.2 mph87%30.07 "Hg15 mi
2:00 AM32 °FScattered showers. Partly sunny.2 mph93%30.07 "Hg15 mi
1:00 AM32 °FScattered showers. Partly sunny.3 mph93%30.06 "Hg15 mi
12:00 AM32 °FScattered showers. Partly sunny.8 mph93%30.04 "Hg15 mi
11:00 PM
Tue, Jun 2
32 °FScattered showers. Partly sunny.9 mph93%30.04 "Hg15 mi
10:00 PM34 °FScattered showers. Broken clouds.8 mph81%30.03 "Hg15 mi
9:00 PM36 °FScattered showers. More clouds than sun.12 mph75%30.03 "Hg15 mi
8:00 PM36 °FOvercast.14 mph70%30.04 "Hg15 mi
7:00 PM37 °FMostly cloudy.14 mph60%30.04 "Hg15 mi
6:00 PM37 °FOvercast.17 mph60%30.04 "Hg15 mi
5:00 PM37 °FOvercast.18 mph60%30.05 "Hg15 mi
4:00 PM37 °FScattered showers. Overcast.18 mph56%30.05 "Hg15 mi
3:00 PM39 °FSnow flurries. Overcast.17 mph56%30.05 "Hg15 mi
2:00 PM39 °FScattered showers. Broken clouds.21 mph56%30.05 "Hg15 mi
1:00 PM39 °FScattered clouds.17 mph52%30.06 "Hg15 mi
12:00 PM37 °FPartly sunny.16 mph52%30.06 "Hg15 mi
11:00 AM37 °FBroken clouds.14 mph60%30.07 "Hg15 mi
10:00 AM37 °FBroken clouds.13 mph56%30.07 "Hg15 mi
Weather by CustomWeather, © 2015

See weather overviewHow to use our weather pages